Year,Month,Day,Hour,Minute,Value (Times are PST for temperature in C)
2015,06,23,00,00,15.60
2015,06,23,00,01,15.60
2015,06,23,00,02,15.60
2015,06,23,00,03,15.60
2015,06,23,00,04,15.60
2015,06,23,00,05,15.60
2015,06,23,00,06,15.60
2015,06,23,00,07,15.70
2015,06,23,00,08,15.70
2015,06,23,00,09,15.70
2015,06,23,00,10,15.70
2015,06,23,00,11,15.70
2015,06,23,00,12,15.70
2015,06,23,00,13,15.70
2015,06,23,00,14,15.60
2015,06,23,00,15,15.60
2015,06,23,00,16,15.60
2015,06,23,00,17,15.60
2015,06,23,00,18,15.60
2015,06,23,00,19,15.50
2015,06,23,00,20,15.50
2015,06,23,00,21,15.50
2015,06,23,00,22,15.50
2015,06,23,00,23,15.50
2015,06,23,00,24,15.40
2015,06,23,00,25,15.40
2015,06,23,00,26,15.40
2015,06,23,00,27,15.30
2015,06,23,00,28,15.30
2015,06,23,00,29,15.30
2015,06,23,00,30,15.30
2015,06,23,00,31,15.30
2015,06,23,00,32,15.30
2015,06,23,00,33,15.30
2015,06,23,00,34,15.30
2015,06,23,00,35,15.30
2015,06,23,00,36,15.20
2015,06,23,00,37,15.20
2015,06,23,00,38,15.20
2015,06,23,00,39,15.20
2015,06,23,00,40,15.20
2015,06,23,00,41,15.10
2015,06,23,00,42,15.10
2015,06,23,00,43,15.10
2015,06,23,00,44,15.10
2015,06,23,00,45,15.10
2015,06,23,00,46,15.00
2015,06,23,00,47,15.00
2015,06,23,00,48,15.00
2015,06,23,00,49,14.90
2015,06,23,00,50,14.90
2015,06,23,00,51,14.90
2015,06,23,00,52,14.80
2015,06,23,00,53,14.80
2015,06,23,00,54,14.80
2015,06,23,00,55,14.80
2015,06,23,00,56,14.80
2015,06,23,00,57,14.70
2015,06,23,00,58,14.70
2015,06,23,00,59,14.70
2015,06,23,01,00,14.60
2015,06,23,01,01,14.60
2015,06,23,01,02,14.60
2015,06,23,01,03,14.60
2015,06,23,01,04,14.50
2015,06,23,01,05,14.50
2015,06,23,01,06,14.50
2015,06,23,01,07,14.50
2015,06,23,01,08,14.50
2015,06,23,01,09,14.40
2015,06,23,01,10,14.40
2015,06,23,01,11,14.30
2015,06,23,01,12,14.30
2015,06,23,01,13,14.30
2015,06,23,01,14,14.20
2015,06,23,01,15,14.20
2015,06,23,01,16,14.20
2015,06,23,01,17,14.20
2015,06,23,01,18,14.20
2015,06,23,01,19,14.20
2015,06,23,01,20,14.20
2015,06,23,01,21,14.20
2015,06,23,01,22,14.20
2015,06,23,01,23,14.10
2015,06,23,01,24,14.10
2015,06,23,01,25,14.10
2015,06,23,01,26,14.10
2015,06,23,01,27,14.10
2015,06,23,01,28,14.10
2015,06,23,01,29,14.10
2015,06,23,01,30,14.10
2015,06,23,01,31,14.10
2015,06,23,01,32,14.10
2015,06,23,01,33,14.10
2015,06,23,01,34,14.20
2015,06,23,01,35,14.20
2015,06,23,01,36,14.20
2015,06,23,01,37,14.20
2015,06,23,01,38,14.20
2015,06,23,01,39,14.20
2015,06,23,01,40,14.20
2015,06,23,01,41,14.20
2015,06,23,01,42,14.20
2015,06,23,01,43,14.20
2015,06,23,01,44,14.20
2015,06,23,01,45,14.20
2015,06,23,01,46,14.20
2015,06,23,01,47,14.10
2015,06,23,01,48,14.10
2015,06,23,01,49,14.10
2015,06,23,01,50,14.10
2015,06,23,01,51,14.00
2015,06,23,01,52,14.00
2015,06,23,01,53,14.00
2015,06,23,01,54,14.00
2015,06,23,01,55,14.00
2015,06,23,01,56,14.00
2015,06,23,01,57,14.00
2015,06,23,01,58,14.00
2015,06,23,01,59,14.00
2015,06,23,02,00,14.00
2015,06,23,02,01,13.90
2015,06,23,02,02,13.90
2015,06,23,02,03,13.90
2015,06,23,02,04,13.80
2015,06,23,02,05,13.80
2015,06,23,02,06,13.80
2015,06,23,02,07,13.70
2015,06,23,02,08,13.70
2015,06,23,02,09,13.70
2015,06,23,02,10,13.60
2015,06,23,02,11,13.60
2015,06,23,02,12,13.60
2015,06,23,02,13,13.50
2015,06,23,02,14,13.50
2015,06,23,02,15,13.40
2015,06,23,02,16,13.40
2015,06,23,02,17,13.30
2015,06,23,02,18,13.30
2015,06,23,02,19,13.30
2015,06,23,02,20,13.30
2015,06,23,02,21,13.30
2015,06,23,02,22,13.30
2015,06,23,02,23,13.20
2015,06,23,02,24,13.20
2015,06,23,02,25,13.20
2015,06,23,02,26,13.20
2015,06,23,02,27,13.20
2015,06,23,02,28,13.20
2015,06,23,02,29,13.20
2015,06,23,02,30,13.20
2015,06,23,02,31,13.20
2015,06,23,02,32,13.10
2015,06,23,02,33,13.10
2015,06,23,02,34,13.10
2015,06,23,02,35,13.10
2015,06,23,02,36,13.10
2015,06,23,02,37,13.10
2015,06,23,02,38,13.10
2015,06,23,02,39,13.10
2015,06,23,02,40,13.10
2015,06,23,02,41,13.10
2015,06,23,02,42,13.00
2015,06,23,02,43,13.00
2015,06,23,02,44,13.00
2015,06,23,02,45,13.00
2015,06,23,02,46,13.00
2015,06,23,02,47,12.90
2015,06,23,02,48,12.90
2015,06,23,02,49,12.90
2015,06,23,02,50,12.90
2015,06,23,02,51,12.80
2015,06,23,02,52,12.80
2015,06,23,02,53,12.80
2015,06,23,02,54,12.80
2015,06,23,02,55,12.80
2015,06,23,02,56,12.80
2015,06,23,02,57,12.80
2015,06,23,02,58,12.80
2015,06,23,02,59,12.70
2015,06,23,03,00,12.70
2015,06,23,03,01,12.70
2015,06,23,03,02,12.70
2015,06,23,03,03,12.70
2015,06,23,03,04,12.80
2015,06,23,03,05,12.80
2015,06,23,03,06,12.80
2015,06,23,03,07,12.80
2015,06,23,03,08,12.80
2015,06,23,03,09,12.80
2015,06,23,03,10,12.80
2015,06,23,03,11,12.80
2015,06,23,03,12,12.80
2015,06,23,03,13,12.80
2015,06,23,03,14,12.80
2015,06,23,03,15,12.90
2015,06,23,03,16,12.90
2015,06,23,03,17,12.90
2015,06,23,03,18,12.90
2015,06,23,03,19,12.90
2015,06,23,03,20,12.90
2015,06,23,03,21,12.90
2015,06,23,03,22,12.90
2015,06,23,03,23,12.90
2015,06,23,03,24,12.90
2015,06,23,03,25,12.90
2015,06,23,03,26,12.80
2015,06,23,03,27,12.80
2015,06,23,03,28,12.80
2015,06,23,03,29,12.80
2015,06,23,03,30,12.80
2015,06,23,03,31,12.80
2015,06,23,03,32,12.80
2015,06,23,03,33,12.80
2015,06,23,03,34,12.80
2015,06,23,03,35,12.80
2015,06,23,03,36,12.70
2015,06,23,03,37,12.70
2015,06,23,03,38,12.70
2015,06,23,03,39,12.70
2015,06,23,03,40,12.60
2015,06,23,03,41,12.60
2015,06,23,03,42,12.60
2015,06,23,03,43,12.60
2015,06,23,03,44,12.50
2015,06,23,03,45,12.50
2015,06,23,03,46,12.50
2015,06,23,03,47,12.50
2015,06,23,03,48,12.50
2015,06,23,03,49,12.40
2015,06,23,03,50,12.40
2015,06,23,03,51,12.40
2015,06,23,03,52,12.40
2015,06,23,03,53,12.30
2015,06,23,03,54,12.30
2015,06,23,03,55,12.30
2015,06,23,03,56,12.30
2015,06,23,03,57,12.30
2015,06,23,03,58,12.30
2015,06,23,03,59,12.30
2015,06,23,04,00,12.30
2015,06,23,04,01,12.30
2015,06,23,04,02,12.20
2015,06,23,04,03,12.20
2015,06,23,04,04,12.20
2015,06,23,04,05,12.20
2015,06,23,04,06,12.20
2015,06,23,04,07,12.20
2015,06,23,04,08,12.10
2015,06,23,04,09,12.10
2015,06,23,04,10,12.10
2015,06,23,04,11,12.10
2015,06,23,04,12,12.10
2015,06,23,04,13,12.10
2015,06,23,04,14,12.10
2015,06,23,04,15,12.10
2015,06,23,04,16,12.10
2015,06,23,04,17,12.10
2015,06,23,04,18,12.00
2015,06,23,04,19,12.00
2015,06,23,04,20,12.00
2015,06,23,04,21,12.00
2015,06,23,04,22,12.00
2015,06,23,04,23,12.00
2015,06,23,04,24,11.90
2015,06,23,04,25,11.90
2015,06,23,04,26,11.90
2015,06,23,04,27,11.90
2015,06,23,04,28,11.90
2015,06,23,04,29,11.90
2015,06,23,04,30,11.80
2015,06,23,04,31,11.80
2015,06,23,04,32,11.80
2015,06,23,04,33,11.80
2015,06,23,04,34,11.80
2015,06,23,04,35,11.80
2015,06,23,04,36,11.80
2015,06,23,04,37,11.80
2015,06,23,04,38,11.80
2015,06,23,04,39,11.80
2015,06,23,04,40,11.80
2015,06,23,04,41,11.80
2015,06,23,04,42,11.80
2015,06,23,04,43,11.80
2015,06,23,04,44,11.80
2015,06,23,04,45,11.70
2015,06,23,04,46,11.70
2015,06,23,04,47,11.70
2015,06,23,04,48,11.70
2015,06,23,04,49,11.70
2015,06,23,04,50,11.60
2015,06,23,04,51,11.60
2015,06,23,04,52,11.60
2015,06,23,04,53,11.60
2015,06,23,04,54,11.60
2015,06,23,04,55,11.60
2015,06,23,04,56,11.60
2015,06,23,04,57,11.60
2015,06,23,04,58,11.60
2015,06,23,04,59,11.60
2015,06,23,05,00,11.60
2015,06,23,05,01,11.60
2015,06,23,05,02,11.60
2015,06,23,05,03,11.50
2015,06,23,05,04,11.40
2015,06,23,05,05,11.40
2015,06,23,05,06,11.40
2015,06,23,05,07,11.40
2015,06,23,05,08,11.40
2015,06,23,05,09,11.40
2015,06,23,05,10,11.40
2015,06,23,05,11,11.40
2015,06,23,05,12,11.40
2015,06,23,05,13,11.40
2015,06,23,05,14,11.40
2015,06,23,05,15,11.30
2015,06,23,05,16,11.30
2015,06,23,05,17,11.30
2015,06,23,05,18,11.30
2015,06,23,05,19,11.20
2015,06,23,05,20,11.20
2015,06,23,05,21,11.20
2015,06,23,05,22,11.20
2015,06,23,05,23,11.20
2015,06,23,05,24,11.20
2015,06,23,05,25,11.20
2015,06,23,05,26,11.20
2015,06,23,05,27,11.20
2015,06,23,05,28,11.10
2015,06,23,05,29,11.10
2015,06,23,05,30,11.10
2015,06,23,05,31,11.10
2015,06,23,05,32,11.10
2015,06,23,05,33,11.10
2015,06,23,05,34,11.10
2015,06,23,05,35,11.00
2015,06,23,05,36,10.90
2015,06,23,05,37,10.90
2015,06,23,05,38,10.90
2015,06,23,05,39,10.90
2015,06,23,05,40,10.90
2015,06,23,05,41,10.90
2015,06,23,05,42,10.90
2015,06,23,05,43,10.90
2015,06,23,05,44,10.90
2015,06,23,05,45,10.90
2015,06,23,05,46,10.90
2015,06,23,05,47,10.90
2015,06,23,05,48,10.90
2015,06,23,05,49,10.90
2015,06,23,05,50,10.90
2015,06,23,05,51,11.00
2015,06,23,05,52,11.10
2015,06,23,05,53,11.10
2015,06,23,05,54,11.10
2015,06,23,05,55,11.10
2015,06,23,05,56,11.10
2015,06,23,05,57,11.10
2015,06,23,05,58,11.20
2015,06,23,05,59,11.20
2015,06,23,06,00,11.20
2015,06,23,06,01,11.20
2015,06,23,06,02,11.30
2015,06,23,06,03,11.30
2015,06,23,06,04,11.40
2015,06,23,06,05,11.40
2015,06,23,06,06,11.40
2015,06,23,06,07,11.40
2015,06,23,06,08,11.40
2015,06,23,06,09,11.40
2015,06,23,06,10,11.40
2015,06,23,06,11,11.50
2015,06,23,06,12,11.60
2015,06,23,06,13,11.60
2015,06,23,06,14,11.60
2015,06,23,06,15,11.60
2015,06,23,06,16,11.60
2015,06,23,06,17,11.70
2015,06,23,06,18,11.70
2015,06,23,06,19,11.70
2015,06,23,06,20,11.70
2015,06,23,06,21,11.80
2015,06,23,06,22,11.80
2015,06,23,06,23,11.80
2015,06,23,06,24,11.80
2015,06,23,06,25,11.80
2015,06,23,06,26,11.80
2015,06,23,06,27,11.90
2015,06,23,06,28,11.90
2015,06,23,06,29,11.90
2015,06,23,06,30,12.00
2015,06,23,06,31,12.00
2015,06,23,06,32,12.00
2015,06,23,06,33,12.00
2015,06,23,06,34,12.10
2015,06,23,06,35,12.10
2015,06,23,06,36,12.20
2015,06,23,06,37,12.20
2015,06,23,06,38,12.20
2015,06,23,06,39,12.30
2015,06,23,06,40,12.30
2015,06,23,06,41,12.30
2015,06,23,06,42,12.30
2015,06,23,06,43,12.40
2015,06,23,06,44,12.40
2015,06,23,06,45,12.50
2015,06,23,06,46,12.50
2015,06,23,06,47,12.60
2015,06,23,06,48,12.60
2015,06,23,06,49,12.60
2015,06,23,06,50,12.60
2015,06,23,06,51,12.70
2015,06,23,06,52,12.70
2015,06,23,06,53,12.70
2015,06,23,06,54,12.70
2015,06,23,06,55,12.80
2015,06,23,06,56,12.80
2015,06,23,06,57,12.80
2015,06,23,06,58,12.80
2015,06,23,06,59,12.80
2015,06,23,07,00,12.90
2015,06,23,07,01,12.90
2015,06,23,07,02,12.90
2015,06,23,07,03,13.00
2015,06,23,07,04,13.00
2015,06,23,07,05,13.00
2015,06,23,07,06,13.00
2015,06,23,07,07,13.10
2015,06,23,07,08,13.10
2015,06,23,07,09,13.20
2015,06,23,07,10,13.30
2015,06,23,07,11,13.30
2015,06,23,07,12,13.40
2015,06,23,07,13,13.40
2015,06,23,07,14,13.50
2015,06,23,07,15,13.60
2015,06,23,07,16,13.60
2015,06,23,07,17,13.70
2015,06,23,07,18,13.70
2015,06,23,07,19,13.70
2015,06,23,07,20,13.80
2015,06,23,07,21,13.90
2015,06,23,07,22,13.90
2015,06,23,07,23,14.00
2015,06,23,07,24,14.00
2015,06,23,07,25,14.00
2015,06,23,07,26,14.00
2015,06,23,07,27,14.00
2015,06,23,07,28,14.00
2015,06,23,07,29,14.00
2015,06,23,07,30,14.00
2015,06,23,07,31,14.10
2015,06,23,07,32,14.00
2015,06,23,07,33,14.00
2015,06,23,07,34,13.90
2015,06,23,07,35,14.00
2015,06,23,07,36,14.00
2015,06,23,07,37,14.00
2015,06,23,07,38,14.00
2015,06,23,07,39,14.00
2015,06,23,07,40,14.00
2015,06,23,07,41,14.10
2015,06,23,07,42,14.10
2015,06,23,07,43,14.20
2015,06,23,07,44,14.20
2015,06,23,07,45,14.40
2015,06,23,07,46,14.40
2015,06,23,07,47,14.50
2015,06,23,07,48,14.50
2015,06,23,07,49,14.60
2015,06,23,07,50,14.70
2015,06,23,07,51,14.80
2015,06,23,07,52,14.80
2015,06,23,07,53,14.80
2015,06,23,07,54,14.80
2015,06,23,07,55,14.80
2015,06,23,07,56,14.90
2015,06,23,07,57,15.10
2015,06,23,07,58,15.10
2015,06,23,07,59,15.20
2015,06,23,08,00,15.30
2015,06,23,08,01,15.40
2015,06,23,08,02,15.60
2015,06,23,08,03,15.80
2015,06,23,08,04,16.00
2015,06,23,08,05,16.10
2015,06,23,08,06,16.20
2015,06,23,08,07,16.20
2015,06,23,08,08,16.20
2015,06,23,08,09,16.10
2015,06,23,08,10,16.10
2015,06,23,08,11,16.10
2015,06,23,08,12,16.10
2015,06,23,08,13,16.10
2015,06,23,08,14,16.10
2015,06,23,08,15,16.00
2015,06,23,08,16,15.90
2015,06,23,08,17,16.00
2015,06,23,08,18,16.10
2015,06,23,08,19,16.10
2015,06,23,08,20,16.10
2015,06,23,08,21,16.20
2015,06,23,08,22,16.10
2015,06,23,08,23,16.20
2015,06,23,08,24,16.30
2015,06,23,08,25,16.30
2015,06,23,08,26,16.30
2015,06,23,08,27,16.30
2015,06,23,08,28,16.30
2015,06,23,08,29,16.30
2015,06,23,08,30,16.30
2015,06,23,08,31,16.20
2015,06,23,08,32,16.00
2015,06,23,08,33,15.90
2015,06,23,08,34,15.80
2015,06,23,08,35,15.80
2015,06,23,08,36,15.80
2015,06,23,08,37,15.80
2015,06,23,08,38,15.90
2015,06,23,08,39,15.80
2015,06,23,08,40,15.80
2015,06,23,08,41,15.80
2015,06,23,08,42,15.80
2015,06,23,08,43,15.80
2015,06,23,08,44,15.80
2015,06,23,08,45,15.80
2015,06,23,08,46,15.90
2015,06,23,08,47,15.90
2015,06,23,08,48,16.10
2015,06,23,08,49,16.10
2015,06,23,08,50,16.20
2015,06,23,08,51,16.20
2015,06,23,08,52,16.20
2015,06,23,08,53,16.30
2015,06,23,08,54,16.40
2015,06,23,08,55,16.40
2015,06,23,08,56,16.40
2015,06,23,08,57,16.50
2015,06,23,08,58,16.60
2015,06,23,08,59,16.50
2015,06,23,09,00,16.40
2015,06,23,09,01,16.40
2015,06,23,09,02,16.30
2015,06,23,09,03,16.30
2015,06,23,09,04,16.30
2015,06,23,09,05,16.20
2015,06,23,09,06,16.30
2015,06,23,09,07,16.40
2015,06,23,09,08,16.40
2015,06,23,09,09,16.40
2015,06,23,09,10,16.40
2015,06,23,09,11,16.40
2015,06,23,09,12,16.30
2015,06,23,09,13,16.20
2015,06,23,09,14,16.20
2015,06,23,09,15,16.10
2015,06,23,09,16,16.10
2015,06,23,09,17,16.20
2015,06,23,09,18,16.20
2015,06,23,09,19,16.20
2015,06,23,09,20,16.30
2015,06,23,09,21,16.50
2015,06,23,09,22,16.60
2015,06,23,09,23,16.60
2015,06,23,09,24,16.60
2015,06,23,09,25,16.60
2015,06,23,09,26,16.60
2015,06,23,09,27,16.60
2015,06,23,09,28,16.60
2015,06,23,09,29,16.60
2015,06,23,09,30,16.60
2015,06,23,09,31,16.40
2015,06,23,09,32,16.40
2015,06,23,09,33,16.40
2015,06,23,09,34,16.50
2015,06,23,09,35,16.60
2015,06,23,09,36,16.60
2015,06,23,09,37,16.70
2015,06,23,09,38,16.80
2015,06,23,09,39,16.90
2015,06,23,09,40,17.10
2015,06,23,09,41,17.30
2015,06,23,09,42,17.30
2015,06,23,09,43,17.40
2015,06,23,09,44,17.50
2015,06,23,09,45,17.70
2015,06,23,09,46,17.90
2015,06,23,09,47,18.00
2015,06,23,09,48,17.90
2015,06,23,09,49,17.80
2015,06,23,09,50,17.60
2015,06,23,09,51,17.30
2015,06,23,09,52,17.00
2015,06,23,09,53,16.80
2015,06,23,09,54,16.70
2015,06,23,09,55,16.70
2015,06,23,09,56,16.70
2015,06,23,09,57,16.70
2015,06,23,09,58,16.60
2015,06,23,09,59,16.40
2015,06,23,10,00,16.40
2015,06,23,10,01,16.50
2015,06,23,10,02,16.50
2015,06,23,10,03,16.60
2015,06,23,10,04,16.70
2015,06,23,10,05,16.80
2015,06,23,10,06,16.90
2015,06,23,10,07,16.90
2015,06,23,10,08,16.90
2015,06,23,10,09,17.00
2015,06,23,10,10,17.10
2015,06,23,10,11,17.10
2015,06,23,10,12,17.10
2015,06,23,10,13,17.20
2015,06,23,10,14,17.30
2015,06,23,10,15,17.30
2015,06,23,10,16,17.30
2015,06,23,10,17,17.40
2015,06,23,10,18,17.40
2015,06,23,10,19,17.30
2015,06,23,10,20,17.30
2015,06,23,10,21,17.40
2015,06,23,10,22,17.50
2015,06,23,10,23,17.60
2015,06,23,10,24,17.70
2015,06,23,10,25,17.70
2015,06,23,10,26,17.60
2015,06,23,10,27,17.60
2015,06,23,10,28,17.70
2015,06,23,10,29,17.70
2015,06,23,10,30,17.70
2015,06,23,10,31,17.60
2015,06,23,10,32,17.60
2015,06,23,10,33,17.70
2015,06,23,10,34,17.80
2015,06,23,10,35,17.80
2015,06,23,10,36,17.90
2015,06,23,10,37,17.80
2015,06,23,10,38,17.60
2015,06,23,10,39,17.50
2015,06,23,10,40,17.50
2015,06,23,10,41,17.60
2015,06,23,10,42,17.50
2015,06,23,10,43,17.30
2015,06,23,10,44,17.20
2015,06,23,10,45,17.20
2015,06,23,10,46,17.30
2015,06,23,10,47,17.30
2015,06,23,10,48,17.30
2015,06,23,10,49,17.30
2015,06,23,10,50,17.40
2015,06,23,10,51,17.50
2015,06,23,10,52,17.70
2015,06,23,10,53,17.90
2015,06,23,10,54,18.00
2015,06,23,10,55,18.00
2015,06,23,10,56,17.90
2015,06,23,10,57,17.90
2015,06,23,10,58,17.80
2015,06,23,10,59,17.60
2015,06,23,11,00,17.50
2015,06,23,11,01,17.40
2015,06,23,11,02,17.50
2015,06,23,11,03,17.70
2015,06,23,11,04,18.00
2015,06,23,11,05,18.10
2015,06,23,11,06,18.20
2015,06,23,11,07,18.20
2015,06,23,11,08,18.20
2015,06,23,11,09,18.20
2015,06,23,11,10,18.10
2015,06,23,11,11,18.00
2015,06,23,11,12,17.90
2015,06,23,11,13,17.90
2015,06,23,11,14,17.80
2015,06,23,11,15,17.70
2015,06,23,11,16,17.70
2015,06,23,11,17,17.70
2015,06,23,11,18,17.70
2015,06,23,11,19,17.70
2015,06,23,11,20,17.80
2015,06,23,11,21,17.80
2015,06,23,11,22,17.80
2015,06,23,11,23,17.90
2015,06,23,11,24,17.90
2015,06,23,11,25,17.90
2015,06,23,11,26,17.90
2015,06,23,11,27,17.80
2015,06,23,11,28,17.70
2015,06,23,11,29,17.80
2015,06,23,11,30,17.80
2015,06,23,11,31,17.70
2015,06,23,11,32,17.70
2015,06,23,11,33,17.60
2015,06,23,11,34,17.60
2015,06,23,11,35,17.60
2015,06,23,11,36,17.60
2015,06,23,11,37,17.70
2015,06,23,11,38,17.70
2015,06,23,11,39,17.70
2015,06,23,11,40,17.70
2015,06,23,11,41,17.80
2015,06,23,11,42,17.90
2015,06,23,11,43,17.90
2015,06,23,11,44,17.90
2015,06,23,11,45,17.90
2015,06,23,11,46,17.90
2015,06,23,11,47,17.90
2015,06,23,11,48,17.90
2015,06,23,11,49,17.90
2015,06,23,11,50,17.90
2015,06,23,11,51,17.90
2015,06,23,11,52,17.80
2015,06,23,11,53,17.70
2015,06,23,11,54,17.80
2015,06,23,11,55,17.80
2015,06,23,11,56,17.90
2015,06,23,11,57,17.90
2015,06,23,11,58,18.10
2015,06,23,11,59,18.20
2015,06,23,12,00,18.20
2015,06,23,12,01,18.20
2015,06,23,12,02,18.20
2015,06,23,12,03,18.30
2015,06,23,12,04,18.50
2015,06,23,12,05,18.50
2015,06,23,12,06,18.40
2015,06,23,12,07,18.40
2015,06,23,12,08,18.20
2015,06,23,12,09,18.20
2015,06,23,12,10,18.20
2015,06,23,12,11,18.40
2015,06,23,12,12,18.50
2015,06,23,12,13,18.50
2015,06,23,12,14,18.50
2015,06,23,12,15,18.40
2015,06,23,12,16,18.40
2015,06,23,12,17,18.50
2015,06,23,12,18,18.60
2015,06,23,12,19,18.70
2015,06,23,12,20,18.70
2015,06,23,12,21,18.60
2015,06,23,12,22,18.80
2015,06,23,12,23,18.90
2015,06,23,12,24,19.00
2015,06,23,12,25,19.10
2015,06,23,12,26,19.10
2015,06,23,12,27,19.10
2015,06,23,12,28,19.10
2015,06,23,12,29,19.10
2015,06,23,12,30,18.90
2015,06,23,12,31,18.90
2015,06,23,12,32,18.90
2015,06,23,12,33,18.80
2015,06,23,12,34,18.70
2015,06,23,12,35,18.70
2015,06,23,12,36,18.80
2015,06,23,12,37,18.80
2015,06,23,12,38,18.90
2015,06,23,12,39,18.80
2015,06,23,12,40,18.80
2015,06,23,12,41,18.90
2015,06,23,12,42,18.90
2015,06,23,12,43,18.90
2015,06,23,12,44,18.90
2015,06,23,12,45,18.90
2015,06,23,12,46,18.90
2015,06,23,12,47,18.80
2015,06,23,12,48,18.80
2015,06,23,12,49,18.80
2015,06,23,12,50,18.90
2015,06,23,12,51,19.10
2015,06,23,12,52,19.10
2015,06,23,12,53,19.30
2015,06,23,12,54,19.40
2015,06,23,12,55,19.30
2015,06,23,12,56,19.30
2015,06,23,12,57,19.20
2015,06,23,12,58,19.10
2015,06,23,12,59,19.10
2015,06,23,13,00,19.10
2015,06,23,13,01,19.20
2015,06,23,13,02,19.20
2015,06,23,13,03,19.30
2015,06,23,13,04,19.40
2015,06,23,13,05,19.50
2015,06,23,13,06,19.60
2015,06,23,13,07,19.70
2015,06,23,13,08,19.80
2015,06,23,13,09,19.80
2015,06,23,13,10,19.70
2015,06,23,13,11,19.70
2015,06,23,13,12,19.70
2015,06,23,13,13,19.80
2015,06,23,13,14,19.90
2015,06,23,13,15,19.90
2015,06,23,13,16,19.90
2015,06,23,13,17,19.90
2015,06,23,13,18,19.90
2015,06,23,13,19,19.90
2015,06,23,13,20,19.90
2015,06,23,13,21,19.90
2015,06,23,13,22,19.90
2015,06,23,13,23,19.80
2015,06,23,13,24,19.90
2015,06,23,13,25,20.00
2015,06,23,13,26,20.10
2015,06,23,13,27,20.10
2015,06,23,13,28,20.20
2015,06,23,13,29,20.20
2015,06,23,13,30,20.20
2015,06,23,13,31,20.20
2015,06,23,13,32,20.20
2015,06,23,13,33,20.20
2015,06,23,13,34,20.40
2015,06,23,13,35,20.50
2015,06,23,13,36,20.50
2015,06,23,13,37,20.50
2015,06,23,13,38,20.50
2015,06,23,13,39,20.50
2015,06,23,13,40,20.40
2015,06,23,13,41,20.20
2015,06,23,13,42,20.20
2015,06,23,13,43,20.20
2015,06,23,13,44,20.40
2015,06,23,13,45,20.60
2015,06,23,13,46,20.80
2015,06,23,13,47,20.80
2015,06,23,13,48,20.60
2015,06,23,13,49,20.50
2015,06,23,13,50,20.40
2015,06,23,13,51,20.40
2015,06,23,13,52,20.30
2015,06,23,13,53,20.20
2015,06,23,13,54,20.20
2015,06,23,13,55,20.20
2015,06,23,13,56,20.20
2015,06,23,13,57,20.20
2015,06,23,13,58,20.30
2015,06,23,13,59,20.30
2015,06,23,14,00,20.40
2015,06,23,14,01,20.50
2015,06,23,14,02,20.70
2015,06,23,14,03,20.70
2015,06,23,14,04,20.70
2015,06,23,14,05,20.70
2015,06,23,14,06,20.80
2015,06,23,14,07,21.00
2015,06,23,14,08,21.10
2015,06,23,14,09,20.80
2015,06,23,14,10,20.50
2015,06,23,14,11,20.30
2015,06,23,14,12,20.20
2015,06,23,14,13,20.30
2015,06,23,14,14,20.40
2015,06,23,14,15,20.30
2015,06,23,14,16,20.50
2015,06,23,14,17,20.60
2015,06,23,14,18,20.80
2015,06,23,14,19,20.90
2015,06,23,14,20,21.00
2015,06,23,14,21,21.00
2015,06,23,14,22,21.10
2015,06,23,14,23,21.20
2015,06,23,14,24,21.20
2015,06,23,14,25,21.20
2015,06,23,14,26,21.20
2015,06,23,14,27,21.30
2015,06,23,14,28,21.10
2015,06,23,14,29,21.20
2015,06,23,14,30,21.20
2015,06,23,14,31,21.30
2015,06,23,14,32,21.10
2015,06,23,14,33,20.90
2015,06,23,14,34,20.80
2015,06,23,14,35,20.70
2015,06,23,14,36,20.50
2015,06,23,14,37,20.50
2015,06,23,14,38,20.50
2015,06,23,14,39,20.60
2015,06,23,14,40,20.70
2015,06,23,14,41,20.80
2015,06,23,14,42,20.80
2015,06,23,14,43,20.90
2015,06,23,14,44,20.90
2015,06,23,14,45,20.80
2015,06,23,14,46,20.60
2015,06,23,14,47,20.50
2015,06,23,14,48,20.60
2015,06,23,14,49,20.70
2015,06,23,14,50,20.70
2015,06,23,14,51,20.70
2015,06,23,14,52,20.80
2015,06,23,14,53,20.90
2015,06,23,14,54,21.00
2015,06,23,14,55,21.20
2015,06,23,14,56,21.30
2015,06,23,14,57,21.60
2015,06,23,14,58,21.90
2015,06,23,14,59,22.00
2015,06,23,15,00,22.10
2015,06,23,15,01,22.30
2015,06,23,15,02,22.20
2015,06,23,15,03,22.10
2015,06,23,15,04,21.90
2015,06,23,15,05,21.90
2015,06,23,15,06,22.00
2015,06,23,15,07,22.10
2015,06,23,15,08,22.30
2015,06,23,15,09,22.40
2015,06,23,15,10,22.50
2015,06,23,15,11,22.60
2015,06,23,15,12,22.70
2015,06,23,15,13,22.90
2015,06,23,15,14,23.00
2015,06,23,15,15,23.10
2015,06,23,15,16,23.10
2015,06,23,15,17,23.00
2015,06,23,15,18,23.10
2015,06,23,15,19,23.10
2015,06,23,15,20,23.20
2015,06,23,15,21,23.20
2015,06,23,15,22,23.20
2015,06,23,15,23,23.20
2015,06,23,15,24,23.20
2015,06,23,15,25,23.20
2015,06,23,15,26,23.20
2015,06,23,15,27,23.20
2015,06,23,15,28,23.30
2015,06,23,15,29,23.30
2015,06,23,15,30,23.30
2015,06,23,15,31,23.20
2015,06,23,15,32,23.20
2015,06,23,15,33,23.30
2015,06,23,15,34,23.30
2015,06,23,15,35,23.20
2015,06,23,15,36,23.10
2015,06,23,15,37,22.90
2015,06,23,15,38,22.90
2015,06,23,15,39,22.90
2015,06,23,15,40,22.90
2015,06,23,15,41,23.00
2015,06,23,15,42,23.10
2015,06,23,15,43,23.10
2015,06,23,15,44,23.10
2015,06,23,15,45,22.90
2015,06,23,15,46,22.90
2015,06,23,15,47,22.90
2015,06,23,15,48,22.70
2015,06,23,15,49,22.50
2015,06,23,15,50,22.40
2015,06,23,15,51,22.30
2015,06,23,15,52,22.20
2015,06,23,15,53,22.10
2015,06,23,15,54,22.10
2015,06,23,15,55,22.00
2015,06,23,15,56,21.90
2015,06,23,15,57,21.70
2015,06,23,15,58,21.60
2015,06,23,15,59,21.60
2015,06,23,16,00,21.60
2015,06,23,16,01,21.60
2015,06,23,16,02,21.60
2015,06,23,16,03,21.70
2015,06,23,16,04,21.80
2015,06,23,16,05,22.00
2015,06,23,16,06,22.20
2015,06,23,16,07,22.40
2015,06,23,16,08,22.50
2015,06,23,16,09,22.50
2015,06,23,16,10,22.20
2015,06,23,16,11,22.00
2015,06,23,16,12,22.00
2015,06,23,16,13,21.90
2015,06,23,16,14,21.80
2015,06,23,16,15,21.70
2015,06,23,16,16,21.70
2015,06,23,16,17,21.70
2015,06,23,16,18,21.60
2015,06,23,16,19,21.50
2015,06,23,16,20,21.30
2015,06,23,16,21,21.10
2015,06,23,16,22,21.20
2015,06,23,16,23,21.20
2015,06,23,16,24,21.30
2015,06,23,16,25,21.30
2015,06,23,16,26,21.30
2015,06,23,16,27,21.30
2015,06,23,16,28,21.30
2015,06,23,16,29,21.30
2015,06,23,16,30,21.40
2015,06,23,16,31,21.50
2015,06,23,16,32,21.60
2015,06,23,16,33,21.80
2015,06,23,16,34,22.00
2015,06,23,16,35,22.10
2015,06,23,16,36,22.20
2015,06,23,16,37,22.40
2015,06,23,16,38,22.60
2015,06,23,16,39,22.70
2015,06,23,16,40,22.80
2015,06,23,16,41,22.90
2015,06,23,16,42,23.00
2015,06,23,16,43,23.10
2015,06,23,16,44,23.00
2015,06,23,16,45,22.90
2015,06,23,16,46,22.90
2015,06,23,16,47,22.80
2015,06,23,16,48,22.80
2015,06,23,16,49,22.70
2015,06,23,16,50,22.70
2015,06,23,16,51,22.60
2015,06,23,16,52,22.50
2015,06,23,16,53,22.40
2015,06,23,16,54,22.40
2015,06,23,16,55,22.40
2015,06,23,16,56,22.50
2015,06,23,16,57,22.50
2015,06,23,16,58,22.40
2015,06,23,16,59,22.20
2015,06,23,17,00,22.10
2015,06,23,17,01,22.00
2015,06,23,17,02,22.00
2015,06,23,17,03,22.10
2015,06,23,17,04,22.20
2015,06,23,17,05,22.30
2015,06,23,17,06,22.20
2015,06,23,17,07,22.20
2015,06,23,17,08,22.20
2015,06,23,17,09,22.30
2015,06,23,17,10,22.40
2015,06,23,17,11,22.30
2015,06,23,17,12,22.30
2015,06,23,17,13,22.30
2015,06,23,17,14,22.30
2015,06,23,17,15,22.20
2015,06,23,17,16,22.10
2015,06,23,17,17,22.10
2015,06,23,17,18,22.00
2015,06,23,17,19,22.00